Wind_Speed
19 20 20 20 20 20 21 22 23 23 22 23 23 23 24 27 26 11 6 9 8 13 14 20 19 24 28 16 12 4 4 3 4 7 7 14 11 11 6 14 8 8 19 20 30
20 21 21 20 20 20 21 22 23 23 22 22 22 22 23 25 25 12 16 13 10 10 13 13 16 20 9 8 4 2 5 7 8 12 8 9 12 10 6 6 17 18 21 28 28
21 21 21 21 21 20 21 22 23 23 22 23 22 21 21 19 6 7 11 20 15 12 13 13 22 12 9 8 5 4 5 9 7 5 8 9 9 11 13 8 20 23 21 17 16
21 22 22 22 21 21 21 22 23 23 23 22 21 20 19 6 2 5 6 19 15 10 10 8 9 8 9 6 6 3 5 10 6 3 8 6 11 9 6 13 21 21 19 16 10
22 22 22 21 21 21 21 22 22 23 23 20 19 16 6 3 9 7 3 8 10 9 11 7 11 12 12 5 11 3 4 12 8 4 8 20 15 6 10 14 19 21 18 13 11
22 22 22 22 21 21 23 23 22 23 20 18 14 10 2 5 4 6 3 7 10 14 14 12 9 13 16 14 11 4 4 10 11 6 7 13 8 8 6 15 15 17 15 13 11
21 21 22 22 22 24 25 24 22 22 17 13 9 2 5 14 7 10 6 9 14 18 10 17 24 12 12 13 8 2 3 4 9 5 8 21 6 1 3 1 12 12 12 14 10
21 21 22 23 24 26 26 24 22 17 13 9 4 2 7 14 10 26 17 15 16 19 23 23 26 10 7 10 12 14 5 5 4 4 5 7 4 9 9 3 10 12 11 12 9
20 22 23 25 25 26 27 24 19 13 8 5 2 5 8 5 12 15 12 13 16 17 13 17 12 6 11 5 7 8 4 8 15 21 10 5 5 10 5 3 8 11 10 11 8
21 23 25 25 25 27 30 21 11 9 5 3 10 6 8 8 15 19 16 18 10 8 8 8 4 4 7 3 6 2 6 5 8 17 17 4 6 8 8 7 8 10 9 9 9
23 25 26 25 24 27 29 7 1 1 6 8 8 6 6 13 8 1 12 18 9 6 8 9 4 7 12 13 15 14 11 9 11 21 15 12 9 11 11 7 1 2 9 8 9
25 26 27 26 22 22 11 4 7 6 8 14 21 18 26 7 3 8 11 7 7 8 8 7 10 11 14 18 16 12 12 16 8 13 6 5 9 15 11 7 9 8 5 8 10
26 26 27 25 21 10 9 13 10 14 4 8 14 13 11 5 7 10 13 8 6 9 9 9 12 17 17 16 14 11 8 8 20 13 1 3 8 10 3 6 4 15 8 10 15
27 26 27 28 8 14 9 3 8 12 3 6 8 13 10 7 7 15 15 10 6 11 11 8 16 16 15 14 8 8 13 14 6 5 3 8 4 3 4 4 3 10 8 22 17
27 26 26 20 15 6 13 12 12 9 3 11 7 8 10 10 4 7 22 7 11 9 7 11 11 9 7 6 5 8 8 7 7 8 5 8 3 2 3 5 7 10 12 15 10
27 27 27 4 9 12 22 17 14 1 5 9 7 6 7 7 13 5 5 6 6 8 8 8 10 5 6 8 7 5 7 10 7 4 5 8 1 3 6 9 4 7 13 14 12
30 28 23 11 6 6 12 7 1 4 9 9 6 9 9 8 8 7 6 7 5 3 6 10 12 10 4 4 9 5 2 4 5 4 9 10 3 6 9 9 14 15 15 19 6
33 21 15 19 9 9 12 3 5 9 2 8 9 10 9 10 10 8 8 5 10 8 4 7 6 11 6 7 6 7 7 6 7 5 7 6 8 7 17 11 15 17 11 11 9
29 9 4 3 10 6 2 3 4 10 12 3 10 10 9 12 6 6 10 10 10 11 8 4 8 8 10 6 9 7 5 10 4 6 4 2 3 5 7 14 8 10 8 18 4
17 7 12 11 13 11 2 5 4 6 10 10 5 8 9 10 6 8 11 11 10 12 8 6 4 6 7 4 5 4 5 4 4 2 7 5 2 4 7 9 5 11 16 9 15
2 3 9 14 14 1 3 6 11 3 6 5 12 7 13 6 10 7 7 6 12 2 6 3 1 9 5 6 9 2 5 3 2 3 2 3 4 6 8 4 7 10 8 12 21
7 3 13 16 3 4 5 6 5 10 1 5 6 11 8 14 6 8 7 1 7 8 3 4 1 4 11 9 11 8 8 8 5 9 3 3 4 5 5 4 2 11 15 9 12
4 3 13 14 3 6 9 13 9 6 8 3 6 9 10 7 4 1 7 7 7 6 3 6 4 3 10 7 5 3 5 3 1 2 6 2 4 3 6 2 3 6 15 12 14
4 3 3 3 6 10 12 15 6 7 8 9 7 8 7 7 8 5 10 7 10 7 4 4 4 3 3 6 4 4 5 4 2 3 4 3 6 5 6 7 4 5 9 17 16
3 3 4 1 5 11 12 11 11 5 6 7 7 7 9 5 9 8 7 7 9 8 2 1 4 5 8 9 9 4 5 5 5 4 3 9 7 8 8 8 4 5 2 6 6
3 4 6 8 12 9 3 4 10 11 6 6 6 10 8 5 6 7 8 8 4 4 6 2 6 6 7 9 9 6 11 11 8 14 14 14 3 6 8 6 5 4 8 4 3
10 10 3 7 8 9 6 5 9 7 5 2 5 6 5 11 8 8 8 9 7 1 4 1 1 3 5 7 9 7 4 2 4 12 6 8 14 1 8 5 5 4 7 7 7
Wind_Direction
346 344 343 340 337 335 335 335 334 335 332 331 333 332 329 327 323 319 244 258 242 272 294 301 292 270 262 255 259 135 47 111 133 104 92 97 98 117 119 135 160 155 138 144 157
341 340 339 336 334 332 333 332 332 331 330 329 330 329 327 330 325 264 234 240 250 271 295 296 313 320 311 260 203 140 105 68 67 110 116 116 132 113 97 108 111 124 127 142 164
338 336 335 333 332 331 330 329 329 327 326 325 324 325 324 332 298 250 227 233 243 255 275 302 294 305 315 326 314 352 132 101 61 52 93 96 94 155 148 140 128 135 142 154 173
335 333 331 329 328 329 327 326 326 324 324 321 321 321 322 330 294 342 219 211 214 239 270 290 289 303 287 321 321 304 120 118 108 16 76 69 91 82 51 137 137 139 144 161 170
334 331 330 328 327 326 323 323 323 320 320 317 317 320 337 241 249 255 176 209 228 225 230 249 274 279 282 232 257 327 30 107 127 217 117 71 73 32 88 114 128 138 149 166 169
330 330 329 327 325 323 320 319 318 317 316 315 312 318 297 250 261 193 184 210 235 217 233 238 253 269 283 290 307 175 282 153 159 131 110 99 106 115 310 117 132 144 155 169 178
329 327 326 325 323 321 317 314 313 312 311 306 307 325 259 244 280 169 178 240 254 245 236 246 251 266 288 308 303 346 247 228 96 149 108 119 92 158 252 305 139 153 167 172 189
331 328 326 324 322 320 315 311 309 305 304 302 308 180 253 257 302 272 271 256 253 256 253 259 271 285 294 297 314 300 247 28 192 210 178 95 240 213 129 100 149 168 183 177 193
330 329 327 326 323 321 314 310 304 298 288 289 276 208 262 262 231 231 229 242 251 261 271 274 280 294 313 280 302 6 68 74 320 328 295 114 227 257 107 218 181 177 185 177 185
333 331 330 328 326 322 314 314 294 288 280 257 267 289 261 241 220 218 211 230 246 221 252 269 286 298 307 313 257 193 50 24 349 288 259 147 216 246 218 189 191 174 180 171 170
336 333 331 327 324 325 326 344 77 67 252 216 207 232 290 227 90 310 208 205 245 252 209 234 217 235 259 259 260 268 141 172 205 228 249 188 192 218 211 205 166 167 169 177 176
338 335 332 326 318 316 304 265 319 321 287 239 244 259 261 27 323 193 229 189 222 235 202 244 223 232 245 260 267 273 175 204 110 240 203 277 207 208 189 155 169 146 32 213 181
339 337 333 326 319 311 255 258 330 317 276 273 222 224 247 169 254 264 167 217 206 238 221 205 233 225 236 246 262 271 257 255 180 218 253 111 308 144 107 230 225 96 56 305 209
338 337 336 331 314 325 284 309 314 322 297 251 184 220 209 207 256 243 186 171 233 217 241 225 236 244 241 241 218 273 281 293 293 146 199 168 237 98 220 193 360 73 172 197 220
336 334 330 333 298 300 332 349 329 298 304 151 153 167 168 187 223 251 179 209 227 239 175 248 246 261 259 276 297 245 323 320 324 322 343 299 120 264 158 55 251 194 239 200 198
332 330 325 354 293 276 324 305 302 255 240 161 132 187 172 223 262 160 138 214 241 266 284 242 277 293 237 258 283 266 329 326 321 329 335 254 180 225 174 202 215 265 271 204 196
327 323 307 269 222 329 326 305 255 236 162 136 166 144 203 203 240 144 189 212 214 180 268 275 246 261 262 3 329 320 312 315 329 326 245 265 39 225 216 195 197 195 248 263 163
324 313 285 253 252 312 282 309 253 269 170 147 138 159 179 196 232 159 177 204 245 251 289 213 293 210 206 172 208 248 196 170 236 247 262 350 149 219 201 202 204 197 198 281 288
331 332 264 252 207 229 295 249 278 323 353 47 144 160 215 220 171 146 185 209 217 218 211 342 305 110 165 159 154 277 296 228 242 291 360 173 105 16 241 253 231 219 291 229 190
325 299 256 181 144 202 231 259 276 360 2 358 323 186 205 195 170 184 185 214 228 206 193 270 321 189 173 148 188 190 250 5 343 233 272 287 138 214 191 196 152 81 72 308 139
303 256 123 157 164 226 235 248 304 360 16 325 335 315 317 189 173 222 207 221 205 194 136 343 88 290 101 178 200 261 266 267 175 153 180 297 268 217 217 244 104 122 162 173 157
301 267 157 161 172 214 238 256 268 347 342 275 308 292 313 345 166 218 213 97 87 70 82 223 245 313 245 239 188 192 212 186 127 289 247 155 297 203 169 169 150 180 181 204 178
301 282 169 194 241 250 266 262 265 306 266 271 268 312 316 336 337 281 98 90 80 69 74 324 289 315 335 6 70 167 251 257 237 140 254 180 211 205 127 95 356 95 167 202 219
284 275 135 196 258 283 293 292 207 189 287 308 283 337 334 315 322 18 129 131 110 109 169 103 283 223 213 261 225 190 208 225 271 36 286 310 170 191 169 135 93 24 116 208 220
238 302 17 263 236 233 254 293 314 225 190 309 346 316 309 328 324 316 343 131 130 159 140 134 273 317 328 331 331 360 344 312 326 305 303 207 192 206 174 134 197 175 159 319 130
299 354 342 299 304 310 307 264 301 307 167 184 262 281 273 285 9 354 7 26 200 174 171 249 282 317 321 301 312 348 337 56 45 21 4 347 356 189 132 141 65 221 199 217 142
348 345 292 283 306 314 266 239 255 270 335 26 235 356 45 19 343 320 330 319 324 43 177 272 126 31 301 332 351 360 3 285 141 74 46 16 326 134 135 158 178 283 194 150 120
Height
797 794 791 788 786 783 780 777 774 771 768 765 762 758 753 748 744 742 740 735 733 732 729 726 727 722 719 717 713 703 754 770 757 754 747 730 740 733 732 743 736 741 752 760 766
796 793 790 787 784 781 779 776 772 769 767 764 761 758 754 749 743 737 732 733 733 732 730 729 724 717 719 711 713 724 758 748 729 734 739 731 735 741 747 748 750 752 755 761 765
794 792 788 786 783 780 778 774 771 768 765 763 760 757 753 751 747 727 724 728 731 731 731 732 726 723 729 713 716 716 747 728 727 723 722 729 731 730 752 759 749 757 759 761 764
793 789 786 784 781 778 775 772 769 766 763 760 758 755 753 752 759 724 723 725 729 730 731 732 728 734 739 733 714 733 715 719 723 718 724 732 726 736 736 741 739 748 755 761 764
791 788 785 782 779 776 773 770 767 764 761 758 756 754 752 752 740 725 724 726 728 729 730 733 735 734 743 727 723 723 719 717 718 720 724 734 748 750 742 737 740 748 756 762 764
790 786 783 780 776 773 770 767 764 761 759 756 754 754 754 760 724 724 724 725 725 727 727 728 728 722 729 724 725 713 713 717 717 723 722 742 749 739 748 738 748 752 757 761 763
788 785 782 778 774 771 767 764 761 759 757 755 753 753 752 739 722 723 724 724 723 724 724 722 720 724 720 729 706 710 729 721 724 727 736 736 763 763 747 745 752 757 757 760 761
786 783 779 775 772 767 763 759 757 755 754 753 753 755 750 723 722 721 723 722 721 721 720 718 716 718 721 714 718 729 729 763 730 728 730 737 779 748 740 750 757 757 757 758 760
784 780 777 772 768 764 759 755 753 752 752 752 753 753 743 719 719 718 720 721 719 718 717 715 715 724 725 741 755 763 779 767 772 742 742 746 777 745 738 746 755 756 755 757 759
782 778 774 770 765 760 754 751 749 749 750 752 752 757 731 720 711 714 717 719 719 718 722 723 729 745 747 757 794 771 774 769 780 764 737 758 763 743 737 741 750 753 753 756 757
780 776 771 767 763 759 752 748 752 754 749 742 736 728 712 710 710 712 714 717 717 723 749 733 757 773 758 743 737 738 763 772 751 748 738 756 755 749 734 741 753 753 754 760 757
779 774 769 763 760 757 755 754 743 744 748 728 724 722 714 710 718 712 713 725 729 748 734 749 764 743 732 730 734 738 753 761 741 736 737 734 747 738 734 752 743 750 761 758 753
776 772 766 760 755 754 752 746 743 740 748 723 713 716 713 711 720 717 711 719 731 745 741 757 745 723 730 734 740 741 747 741 755 733 721 732 755 750 752 746 731 746 750 759 752
775 770 766 758 757 752 748 742 743 741 768 730 718 709 707 709 722 701 703 716 726 743 737 740 721 725 730 736 730 758 719 718 721 744 774 732 796 767 760 751 747 762 754 754 748
773 769 765 765 759 756 748 743 742 741 790 714 712 693 698 717 707 705 698 710 734 731 729 745 730 731 732 728 716 740 715 723 724 744 747 744 771 782 759 766 758 744 736 729 731
771 768 764 763 758 749 747 744 743 773 779 720 706 716 720 715 712 702 707 704 706 724 722 726 705 715 717 709 712 706 724 732 732 749 790 753 757 800 774 756 750 739 730 715 722
767 764 761 761 754 750 747 744 774 778 699 721 724 716 723 728 721 715 725 735 748 757 760 735 726 709 704 724 718 722 744 799 803 802 794 745 762 776 746 737 733 719 721 704 711
759 755 752 750 750 751 749 759 780 724 711 691 706 716 731 721 722 719 732 746 730 735 752 765 766 722 705 722 739 741 751 798 808 808 785 738 779 761 718 714 715 706 711 716 716
756 751 749 743 746 750 756 775 748 724 703 701 707 728 731 715 715 722 733 740 726 722 755 755 746 694 702 701 717 737 759 732 764 757 782 761 756 741 730 723 727 725 727 721 733
757 753 742 742 744 749 762 763 735 703 702 705 727 712 731 720 720 726 733 711 715 704 704 723 758 711 702 697 704 718 720 767 772 791 800 771 760 767 744 735 720 717 723 733 723
758 753 738 740 744 751 768 747 722 699 702 715 722 723 715 712 714 720 717 700 694 695 694 707 732 738 708 724 735 735 747 739 754 766 793 797 780 727 728 724 714 713 709 716 713
759 755 737 739 757 749 752 731 714 708 700 709 708 710 713 707 709 713 713 699 683 695 716 706 728 758 737 701 696 708 728 737 781 776 765 772 770 705 712 704 706 714 708 707 696
765 746 735 736 760 750 731 721 710 715 712 709 712 704 700 712 722 702 703 690 687 702 721 717 744 771 755 720 703 713 712 714 728 742 765 778 768 713 708 709 704 705 707 705 699
767 752 737 736 734 741 741 729 718 704 711 705 707 704 709 714 706 715 710 696 693 701 704 706 732 749 772 740 719 727 717 711 721 764 761 755 743 722 714 711 705 699 706 709 707
763 748 745 745 740 733 729 725 721 720 708 707 715 713 718 727 722 719 705 704 698 703 700 711 745 733 729 717 712 711 715 713 726 730 748 746 734 723 715 710 698 693 686 693 690
768 760 750 747 731 727 728 726 724 713 713 721 726 715 714 727 727 730 716 716 713 704 711 709 746 730 741 719 717 724 718 720 725 727 733 726 722 702 703 703 696 696 695 692 692
767 763 760 748 740 738 729 721 719 710 706 702 709 717 723 721 712 707 703 703 704 711 717 720 735 747 758 733 732 750 724 717 717 728 736 758 733 703 711 705 699 699 695 693 692